SL-8 DEB, 1549

Orbit data source: Space-Track

SL-8 DEB, 1549 is space debris in LEO originally from a launch on Mon, 15 Mar 1965 UTC launched from the Tyuratam Missile And Space Complex (TTMTR). Debris objects in space refer to the collection of defunct objects orbiting the Earth. Examples of debris include non-operational satellites, rocket bodies, and fragments generated from explosions, collisions, or faulty payload assembly.

Loading next visibility...
Identifier
1549, 1965-020CV
Orbit
LEO
Country
Flag of CISCIS
Related business
Manufacturer
Unknown
Mission
Spacecraft
Bus & Motor
Unknown
Mass
Unknown
Launch date (UTC)
1965-03-15 (61 years ago)
Launch vehicle
Unknown
Launch site
Tyuratam Missile And Space Complex (TTMTR)
Object type
Payload
Rocket body
Debris
Shape & HBR
Unknown shape, 0.1 m
Radar Cross Section
Medium (>0.1 m² and <1 m²)

Expand to show TLE details & history
Last TLE update: 22 hours ago

TLE from 22 hours ago
0 SL-8 DEB
1 01549U 65020CV  26106.46965083  .00000168  00000-0  36202-3 0  9999
2 01549  56.1616  96.0862 0839468  18.7011 344.2882 12.64486845807131
Epoch: 2026-04-16T11:16Z
TLE epoch observation values (Epoch: 2026-04-16T11:16:17.831Z)
Latitude
0.00003°
Longitude
82.39518°
Altitude
781.184 km
Speed
7.757 km/s
True Right ascension
06h 24m 20s
True Declination
0° 00' 00"
Sunlit
Object was in daylight at epoch
Visualization orbit readout
Latitude
Unknown
Longitude
Unknown
Altitude
Unknown
Speed
Unknown
Apparent Right ascension
Unknown
Apparent Declination
Unknown
Sunlit
N/A
Visualization observer readout
Local Sidereal Time
15:58:54
Azimuth
Unknown
Elevation
Unknown
Doppler factor
Unknown
Orbital elements
Apogee altitude
2,057.594 km
Perigee altitude
750.975 km
Semi-major axis
7,782.422 km
Eccentricity
0.08395
Inclination
56.1616°
RAAN
96.0862°
Arg. of periapsis
18.7011°
True anomaly
341.39327°
Mean anomaly
344.2882°
Eccentric anomaly
342.87165°
Mean motion
3.16134 °/min
Orbital period
113.88 mins
BSTAR
0.00036202
Loading maneuver chart data...
Computing Atmospheric mass density...
Loading historical data...
Loading historical data...
Loading historical data...
Loading historical data...
Loading historical data...
Loading historical data...
Loading historical data...

Documentation

Showing up to 5 results
|